Location: Podia
(1.5569°N, 32.3469°E)
Time: 00:36:47
(UTC+00:00)

SL-4 R/B - Pass Details

Date: 01 June 2020
Orbit: 428 x 666 km, 51.6° (Epoch: 13 July)

Event Time Altitude Azimuth Distance (km) Brightness Sun altitude
Rises 17:15:59 0° 219° (SW) 2,686 5.7 -19.5°
Reaches altitude 10° 17:18:08 10° 221° (SW) 1,833 4.9 -20.0°
Maximum altitude 17:22:20 73° 306° (NW) 614 2.3 -21.0°
Drops below altitude 10° 17:26:50 10° 30° (NNE) 1,971 4.8 -22.0°
Sets 17:29:13 0° 32° (NNE) 2,907 5.6 -22.5°
